GFSNGP_700_spd_000.txt.gz
Wind_Speed
29 28 26 34 39 40 50 53 50 42 47 43 37 33 27 25 23 25 23 23 22 31 33 26 26 30 33 33 32 27 28 29 29 33 34 33 35 39 45 52 47 46 39 36
26 30 33 34 37 39 39 41 52 52 49 40 44 37 36 31 30 32 30 26 22 33 31 23 20 22 25 25 27 27 30 31 31 29 26 26 29 36 41 39 36 34 27 34
23 20 25 35 39 38 44 39 37 42 48 51 41 33 35 35 28 29 26 23 24 30 28 25 24 26 28 28 29 32 32 31 28 27 28 29 29 29 28 28 29 31 29 34
22 7 14 26 29 35 37 44 36 31 27 32 37 32 35 31 36 34 29 30 29 31 32 28 30 30 31 34 34 33 33 32 29 29 24 22 20 18 20 25 26 23 26 29
21 23 18 16 11 26 33 38 40 32 29 24 23 30 30 32 31 33 33 32 32 32 32 34 34 32 32 32 34 34 35 35 31 21 12 14 14 18 17 24 27 23 25 24
15 19 18 11 13 22 28 29 37 38 34 32 28 30 32 36 36 31 37 33 31 31 38 36 31 33 31 35 34 36 36 33 25 17 14 17 19 22 21 22 23 20 22 23
23 17 18 19 19 21 11 19 32 35 37 34 31 27 30 34 36 35 37 36 35 33 31 33 34 33 34 33 33 31 28 26 22 23 25 30 31 36 21 18 16 17 19 22
19 17 19 19 14 14 15 21 20 30 31 34 34 32 30 30 31 33 38 31 33 34 29 31 34 32 31 30 27 24 21 21 26 29 29 31 27 29 21 13 13 13 16 19
23 24 23 21 17 18 8 6 13 21 25 24 30 30 31 31 32 29 30 30 29 28 31 34 34 33 29 24 21 21 25 31 31 28 21 19 21 20 18 14 14 15 17 21
20 24 22 19 21 18 12 14 17 22 24 25 33 36 37 39 36 33 32 32 32 31 31 31 32 31 28 22 24 28 32 28 22 20 17 18 18 18 16 14 17 15 20 25
16 12 10 19 27 29 28 28 29 28 29 35 37 35 35 37 33 31 30 25 23 23 23 24 26 25 25 27 31 30 27 25 21 20 19 18 19 19 19 18 15 15 16 21
14 25 24 33 31 20 23 26 24 22 20 22 21 25 26 21 23 18 20 19 16 18 20 22 24 26 29 29 24 25 23 20 21 21 19 20 18 15 16 19 18 18 15 18
24 35 38 41 22 21 13 16 12 11 15 14 12 13 18 20 23 22 17 16 16 17 19 20 20 20 19 19 19 20 19 19 19 18 18 17 16 17 19 20 19 18 17 15
38 35 32 34 34 19 11 8 5 2 5 2 5 9 12 12 14 16 21 29 25 17 14 14 15 15 15 15 14 15 17 18 18 17 18 19 19 18 18 18 19 17 16 17
33 31 30 30 39 15 11 10 10 9 7 12 7 6 9 10 11 13 14 14 14 16 17 16 16 14 14 16 16 16 17 18 17 18 20 20 20 18 17 18 17 17 15 18
19 24 27 23 22 21 22 16 3 3 5 5 11 18 14 11 13 16 17 17 16 16 15 16 18 19 20 21 20 19 19 19 19 20 22 22 19 16 18 17 16 18 21 25
20 18 21 20 13 7 15 17 5 7 6 8 11 12 12 13 14 13 15 16 16 17 17 17 18 19 20 21 20 19 21 22 22 23 25 23 17 16 16 16 19 23 25 27
18 20 17 17 11 5 4 2 6 8 10 9 10 10 11 12 13 14 15 15 14 14 14 14 16 19 20 21 22 21 24 23 25 25 20 20 20 18 20 21 23 25 24 25
22 20 13 7 4 4 5 7 8 10 11 12 12 12 12 14 14 13 14 13 12 11 12 14 16 18 21 21 22 21 24 23 22 24 18 17 17 20 21 24 25 24 23 25
10 11 7 5 4 3 4 5 6 7 8 8 9 10 10 9 8 6 3 5 6 7 10 12 14 17 18 20 20 24 25 18 21 19 18 19 20 21 22 24 23 23 23 23
9 9 7 5 5 4 4 2 2 3 4 4 4 5 6 5 4 1 1 4 4 5 7 9 9 12 16 14 18 19 19 21 19 21 22 21 23 23 23 20 20 21 18 23
8 8 8 9 8 7 5 4 3 3 4 4 3 2 2 2 1 1 2 2 3 5 6 8 9 10 12 13 15 16 18 19 21 23 24 26 26 26 24 23 22 23 23 22
10 9 11 12 12 9 7 6 6 4 3 3 4 4 3 4 3 1 4 5 6 7 9 10 10 11 12 14 16 19 21 22 23 23 23 23 23 23 23 23 23 24 24 24
13 11 11 12 12 11 11 10 7 7 7 8 6 7 6 3 6 5 7 8 8 9 10 12 13 14 15 17 18 19 20 21 22 23 24 24 23 23 23 24 24 23 23 25
11 8 8 11 11 11 13 11 11 10 8 8 9 8 6 6 4 5 4 6 9 10 9 13 15 14 15 13 13 15 16 17 16 15 16 20 20 20 20 20 19 21 23 23
6 6 7 6 7 8 7 7 6 8 6 6 6 7 6 7 8 7 7 7 6 7 7 10 13 12 12 12 12 13 14 13 16 15 15 14 16 18 18 20 21 23 23 22
2 6 7 7 8 9 11 11 11 11 13 12 10 10 11 11 10 9 9 8 9 10 11 12 13 16 15 12 13 16 15 15 16 15 15 16 17 17 18 18 19 20 20 20

GFSNGP_700_spd_006.txt.gz
Wind_Speed
44 39 34 35 40 43 42 48 40 42 49 35 45 37 31 32 22 23 24 21 21 24 25 32 34 24 33 31 29 33 29 29 27 26 24 25 24 20 24 27 26 30 34 35
35 36 37 35 37 40 41 45 47 46 43 46 41 40 33 29 25 32 34 31 19 23 25 28 35 28 28 33 32 32 32 31 27 27 28 28 26 26 27 29 29 31 33 33
35 35 33 37 39 33 36 35 40 40 45 39 39 37 36 28 27 33 32 33 27 18 23 28 28 26 26 34 36 34 33 31 28 28 30 31 28 28 28 30 31 33 32 27
35 32 25 37 32 34 32 27 31 38 37 36 45 43 42 41 29 34 31 35 39 36 25 28 32 30 33 40 41 36 35 36 32 29 33 31 27 27 30 29 29 29 26 22
31 33 25 29 28 24 22 26 26 32 33 29 32 33 42 46 46 43 40 32 39 41 40 35 36 32 31 39 36 36 35 36 32 33 38 30 28 29 28 28 26 22 21 24
29 24 24 35 18 19 15 16 13 15 16 16 18 39 39 34 36 41 50 43 28 32 35 41 39 35 34 41 34 33 33 32 37 36 33 31 30 28 26 23 19 19 22 24
27 29 26 13 22 20 17 13 14 18 20 23 19 21 18 25 36 34 39 49 43 30 28 35 38 31 31 42 36 33 36 36 37 37 34 31 30 26 21 18 19 22 23 25
25 21 19 11 9 19 16 20 18 19 18 18 23 31 27 28 27 31 24 31 33 37 34 36 30 31 39 46 41 39 40 38 40 34 32 28 20 17 16 19 23 21 23 23
25 30 27 9 17 13 19 7 9 19 21 21 18 21 23 20 25 31 32 26 27 35 36 39 37 34 37 45 43 41 38 37 35 29 24 25 27 17 20 22 21 20 19 20
32 32 21 18 12 10 11 14 10 10 15 20 13 17 20 25 25 29 33 25 28 35 39 39 42 41 41 38 40 38 35 31 27 26 22 19 18 16 16 17 18 18 19 18
40 32 24 21 18 13 18 21 14 17 16 15 19 20 19 19 17 19 22 26 30 33 32 35 41 42 36 36 35 32 29 26 21 17 13 14 15 15 17 16 16 18 17 18
20 28 28 24 17 19 20 15 16 19 19 19 20 20 22 25 29 27 26 27 27 30 30 31 30 31 30 30 23 21 18 16 12 11 12 14 15 16 17 17 18 17 18 17
26 24 33 31 23 21 23 20 19 24 27 26 21 25 20 26 23 26 23 23 23 23 21 20 19 18 19 19 16 15 14 12 9 11 13 14 14 16 19 18 18 15 14 17
24 14 30 37 27 23 22 24 22 16 16 18 16 12 9 17 10 21 26 21 20 18 16 16 15 14 13 13 10 6 5 8 9 9 12 15 17 16 14 16 19 17 17 18
21 17 16 18 22 24 25 22 17 19 17 16 14 13 15 16 12 9 9 9 8 10 13 12 15 11 6 6 9 9 11 11 10 16 19 16 14 13 17 15 17 16 18 19
20 14 26 27 29 30 26 19 12 8 6 8 10 11 11 13 14 15 11 10 10 10 9 13 19 17 12 9 10 13 13 14 14 17 16 17 17 19 16 17 18 16 20 21
8 8 18 18 21 18 16 16 18 15 14 17 6 10 19 13 15 17 15 5 7 8 8 14 14 10 14 10 10 14 15 15 15 19 21 19 22 21 17 16 20 22 22 21
9 9 6 4 8 12 19 27 27 25 8 7 21 2 2 6 8 8 7 10 14 12 14 15 15 15 17 11 9 8 17 17 23 22 21 19 20 18 21 21 20 18 22 26
4 5 19 20 12 15 14 13 13 7 5 6 6 3 3 5 4 6 7 13 14 12 14 18 19 16 18 16 17 19 17 17 15 24 22 19 20 19 19 17 17 23 28 28
22 24 22 14 17 12 13 11 11 8 5 10 5 2 3 3 3 4 6 6 8 11 14 17 18 18 19 20 22 24 18 22 21 16 19 18 13 12 16 17 20 25 24 29
23 19 17 12 14 15 13 6 6 7 9 6 4 4 4 4 0 2 3 0 3 6 9 6 7 10 14 16 21 17 19 24 23 27 14 16 13 18 13 15 21 17 21 27
13 11 13 11 12 14 8 7 9 7 8 7 6 5 8 7 5 2 1 1 4 5 4 7 6 8 9 14 17 21 16 18 19 10 13 15 12 7 13 15 12 13 22 22
9 18 13 10 10 11 7 10 14 6 4 6 8 2 3 4 5 5 6 5 2 3 4 6 6 6 8 13 5 10 14 9 7 8 13 23 24 22 22 25 28 25 20 19
15 8 19 10 18 15 15 8 8 13 12 13 12 9 8 7 8 11 13 12 8 13 11 12 11 9 8 11 13 8 8 13 20 18 18 17 18 19 20 20 21 20 23 26
15 17 16 11 12 10 15 12 7 9 7 4 7 6 4 3 9 1 10 12 10 15 9 7 9 11 11 14 18 14 11 8 9 11 11 12 15 12 12 15 14 13 14 16
15 11 5 0 1 2 4 8 12 7 6 8 7 6 9 10 6 3 5 9 3 7 9 10 9 10 9 1 7 8 14 16 16 20 22 15 16 17 16 15 14 16 15 14
2 2 3 3 6 4 6 6 13 10 14 13 15 11 14 15 10 12 13 12 9 9 12 6 11 8 11 12 17 17 12 18 23 20 18 22 24 18 13 13 15 15 18 20

GFSNGP_700_spd_009.txt.gz
Wind_Speed
43 46 31 47 30 48 50 48 41 40 45 49 40 25 24 25 21 24 24 19 29 29 28 27 23 20 20 22 22 27 26 26 25 23 23 24 24 23 22 22 20 23 27 29
37 37 43 44 37 37 49 49 49 47 47 28 32 37 34 25 29 28 24 25 31 31 31 26 26 24 19 22 21 23 28 26 25 25 26 27 26 23 22 22 23 26 28 30
31 32 27 31 55 42 31 47 48 47 46 41 43 37 24 24 32 37 35 29 27 29 28 26 29 21 20 16 17 23 26 28 27 28 28 27 27 26 26 24 26 29 31 32
25 23 9 32 32 36 36 24 37 44 42 40 35 46 38 30 19 17 31 39 33 33 26 25 24 26 24 23 25 21 28 30 29 31 31 30 30 30 30 30 30 30 31 32
21 26 18 29 23 24 26 33 25 25 17 28 35 35 36 36 33 29 37 27 29 27 34 32 33 24 25 26 26 27 29 33 30 31 32 32 33 30 30 30 28 27 28 26
22 14 15 33 24 23 20 18 20 21 22 21 22 24 33 30 25 18 23 27 39 29 33 37 46 41 37 34 31 30 30 35 31 32 30 33 36 30 26 27 29 30 26 22
16 21 18 6 33 28 15 10 12 21 23 22 23 22 26 28 28 28 31 31 34 42 45 33 33 39 35 38 33 32 33 38 37 37 35 37 38 31 30 29 25 23 22 22
10 8 6 13 17 23 17 11 17 20 19 18 21 21 21 25 31 33 32 28 30 41 39 42 36 32 36 35 34 32 34 38 39 38 40 40 36 31 29 19 22 29 25 25
10 5 12 3 12 19 28 23 13 12 14 19 20 24 28 26 29 32 32 31 29 25 29 38 45 33 32 31 25 32 39 42 42 42 39 38 35 32 27 24 23 24 26 24
19 10 4 10 24 16 18 31 21 22 21 19 19 24 28 31 31 21 28 28 33 35 25 31 40 41 38 35 32 31 40 46 49 43 38 36 30 29 25 20 20 23 23 23
22 14 13 18 22 16 11 11 14 28 25 23 23 21 18 22 30 35 29 34 37 37 35 28 28 30 34 36 34 34 36 40 40 37 31 28 27 22 18 18 21 22 19 19
19 14 12 13 16 21 22 22 20 20 17 16 17 20 21 20 22 27 28 26 41 36 37 35 27 27 32 35 33 33 32 30 30 29 26 22 19 17 18 19 21 20 17 18
19 16 20 19 21 16 22 22 24 23 21 20 20 24 23 22 27 28 31 6 29 29 25 25 22 22 25 23 23 25 27 24 22 20 19 17 17 17 18 19 17 17 17 15
25 19 25 26 25 21 22 21 20 20 21 21 21 28 22 26 30 31 11 29 15 14 17 17 18 19 20 25 25 24 21 20 18 17 16 17 14 14 16 17 20 19 17 16
23 23 27 20 28 21 12 7 7 6 9 16 20 26 23 26 22 22 7 5 6 17 20 19 21 23 21 20 19 19 19 17 17 20 20 16 17 15 17 21 17 15 16 14
13 11 9 11 10 14 14 11 10 10 10 8 11 13 16 14 13 14 17 15 9 12 17 17 16 15 14 15 15 16 18 19 17 17 17 16 16 12 16 18 14 12 10 17
14 14 21 21 21 15 9 7 11 6 4 4 2 7 15 13 14 17 20 15 11 10 9 10 10 12 16 15 16 15 15 21 17 17 21 17 17 16 18 16 13 12 13 16
15 17 18 15 12 10 9 10 10 10 10 7 8 15 19 12 13 15 17 19 18 16 10 7 8 13 11 11 15 16 16 14 14 22 21 17 17 16 18 17 16 16 16 20
22 21 17 15 13 8 6 10 7 12 15 13 6 7 10 10 23 20 26 29 26 20 16 15 16 17 14 10 16 17 16 16 18 21 21 21 20 19 18 21 22 23 23 23
20 25 24 18 12 12 12 11 11 8 12 11 7 6 6 7 5 2 2 3 4 5 10 9 13 12 10 13 20 19 19 19 19 21 18 23 20 16 18 22 24 26 24 22
23 18 26 21 15 9 8 11 6 5 5 5 3 3 4 6 4 4 0 4 6 7 8 10 12 16 17 23 25 22 19 17 16 17 20 21 16 15 17 20 22 17 20 19
21 18 20 19 12 14 12 13 11 11 10 9 9 7 9 8 9 8 3 2 2 3 4 5 6 7 12 16 18 18 18 19 19 20 16 17 18 17 18 21 21 20 25 22
18 20 19 14 15 15 14 14 9 8 6 7 10 5 5 8 10 9 7 6 2 4 4 3 3 7 9 10 12 15 18 21 18 24 17 25 24 23 18 20 21 25 27 26
18 21 13 16 14 11 8 9 7 12 8 10 13 11 10 9 8 7 9 10 7 1 10 9 6 9 8 10 13 12 4 7 9 10 12 17 19 18 23 24 25 28 31 28
26 19 11 11 10 15 15 8 3 8 3 5 2 5 6 10 8 9 5 7 6 3 2 3 9 6 9 14 15 18 18 16 8 11 11 12 14 15 18 19 20 21 21 23
10 3 1 2 6 4 3 4 3 1 3 6 4 6 2 3 5 6 3 2 3 4 7 9 10 11 13 15 19 23 24 24 23 23 17 18 20 19 23 21 18 22 23 18
3 5 4 2 3 6 9 9 6 10 12 13 14 15 15 19 14 12 14 14 13 12 16 21 20 15 18 18 21 18 20 24 25 27 22 25 26 27 28 18 16 20 19 19

GFSNGP_700_spd_015.txt.gz
Wind_Speed
25 27 33 34 28 50 54 54 41 45 45 43 49 47 36 25 25 30 26 20 21 35 36 37 40 40 37 32 30 32 33 37 37 33 30 26 30 30 29 32 32 32 30 28
27 24 25 35 44 45 53 57 55 47 45 35 43 41 40 40 38 24 28 28 21 27 31 34 39 38 41 35 31 34 34 37 36 35 35 32 31 34 32 32 33 33 31 28
13 15 23 32 57 46 45 48 44 54 47 41 47 44 32 29 35 34 27 25 35 36 35 32 33 33 39 37 34 33 33 36 34 34 36 37 33 35 38 37 37 36 33 31
12 8 9 37 30 42 47 44 42 45 39 33 37 39 31 28 26 38 35 28 33 41 40 30 25 36 34 39 34 29 32 33 33 31 35 38 40 36 37 40 40 39 36 33
6 8 22 28 19 15 40 52 42 43 40 39 23 35 44 36 28 29 29 28 27 30 36 33 31 32 36 41 38 31 32 34 34 31 32 36 39 38 39 41 42 40 38 35
13 7 6 8 17 21 30 47 49 41 34 33 28 32 37 35 25 25 26 31 28 29 34 34 32 32 37 37 38 38 32 31 29 31 33 36 36 42 39 41 41 40 38 36
30 13 13 16 20 12 19 31 36 41 37 38 40 29 25 37 31 30 31 29 29 30 26 27 33 38 39 40 43 35 34 34 34 32 33 35 38 38 42 43 43 43 41 38
28 17 13 10 9 6 10 19 31 34 28 26 26 25 22 31 36 39 32 30 32 31 32 31 30 32 36 44 40 40 37 41 38 37 37 34 39 39 41 40 45 44 43 40
30 27 20 10 2 8 20 22 21 22 24 25 26 25 24 23 27 31 34 29 30 30 32 32 32 36 36 33 32 39 41 40 39 45 43 39 36 37 43 45 38 38 43 39
33 36 35 14 6 11 19 20 21 22 22 22 20 22 22 21 23 23 25 25 26 29 33 36 37 37 38 36 39 45 47 48 44 53 47 53 46 43 44 47 46 44 41 37
37 30 42 27 11 6 15 19 21 25 26 25 21 19 17 15 15 17 18 21 23 24 24 25 31 37 44 47 51 54 54 51 56 54 53 54 51 48 45 48 47 45 42 35
42 28 36 30 16 13 15 18 17 16 18 18 17 12 11 12 10 10 11 15 15 14 19 24 35 43 47 50 53 54 57 55 57 61 59 54 49 45 45 40 38 44 41 24
37 34 26 45 28 4 10 14 16 17 15 11 9 5 5 9 11 11 12 14 17 22 24 30 37 40 43 49 52 60 64 62 58 55 63 59 49 46 47 42 36 27 24 28
18 31 29 26 21 22 17 10 9 10 9 7 3 6 10 11 12 13 16 19 20 24 29 29 31 34 37 43 53 62 63 66 69 50 58 51 38 37 37 41 48 42 33 24
30 33 33 39 18 10 17 13 10 2 5 7 6 11 13 12 12 12 16 20 22 26 26 26 25 23 25 28 30 38 71 59 50 36 61 38 45 21 23 33 36 21 30 29
31 27 26 36 17 9 11 6 7 9 8 10 12 9 9 9 4 3 6 13 15 11 14 9 12 13 18 18 26 23 25 6 53 36 27 25 24 22 25 25 26 28 24 20
31 27 22 18 14 9 5 7 9 11 14 21 9 6 5 6 8 7 8 8 6 6 5 6 7 6 11 14 13 16 19 19 19 22 20 19 20 22 23 24 23 21 16 17
25 25 27 19 19 14 11 7 9 9 8 7 4 3 4 7 6 6 6 11 9 8 8 9 6 5 6 6 10 11 11 15 16 18 21 20 19 18 17 15 16 21 27 32
16 20 22 22 20 17 13 8 9 6 3 3 2 3 8 13 16 14 15 18 14 13 11 10 9 6 4 7 4 2 3 10 12 14 12 10 11 13 16 23 26 19 17 16
27 30 32 29 26 20 18 19 19 20 18 13 7 4 3 1 1 2 3 10 15 13 14 16 17 18 15 16 15 10 9 19 19 20 21 24 28 29 26 23 23 22 17 17
29 28 28 26 24 22 20 20 16 16 15 10 9 11 6 6 7 7 2 2 3 4 8 14 11 10 6 8 14 17 21 14 9 8 6 4 12 16 16 16 19 19 19 15
28 24 25 28 20 20 14 17 16 13 12 10 11 11 11 9 8 7 5 5 7 7 8 9 7 7 6 3 3 6 9 9 9 5 12 10 9 17 18 20 22 19 14 17
28 23 18 12 15 14 11 12 10 8 12 11 9 8 9 10 12 10 9 8 6 7 8 10 10 11 11 12 11 9 8 6 6 6 5 9 11 15 16 24 19 13 16 20
22 20 17 16 8 8 8 10 7 9 7 5 6 7 8 7 13 12 12 12 12 12 13 9 10 9 6 5 6 5 2 3 5 7 12 12 12 12 8 9 10 18 22 17
18 15 12 13 11 11 10 9 7 7 7 5 7 7 5 10 13 9 8 15 7 6 13 18 18 14 12 11 4 6 9 11 10 13 12 11 9 9 13 15 11 12 14 18
15 15 16 15 13 11 12 11 10 10 9 9 9 10 10 12 13 15 16 15 14 17 19 18 18 15 12 10 16 19 17 15 12 14 15 14 14 16 15 14 15 17 19 14
15 14 12 10 10 10 11 12 14 15 15 14 12 11 11 11 11 12 14 16 18 21 22 24 21 19 19 20 18 15 14 17 20 21 22 20 18 17 19 20 24 25 24 25

GFSNGP_700_spd_021.txt.gz
Wind_Speed
15 19 19 20 27 25 29 39 38 38 41 35 38 31 21 16 23 20 21 28 26 29 32 32 29 26 25 26 31 35 36 36 35 32 31 32 31 28 26 29 29 31 35 39
10 15 13 17 28 32 29 32 28 36 38 27 22 26 30 35 39 36 22 22 19 19 22 23 30 25 26 27 32 35 32 29 29 34 34 34 35 33 30 30 29 33 37 39
8 9 14 22 37 26 29 27 30 39 33 36 38 36 33 22 23 24 25 25 24 24 22 25 25 24 30 31 32 32 30 27 29 27 28 34 35 35 35 33 32 33 38 39
9 5 10 16 20 24 23 24 32 43 40 41 39 38 35 28 28 26 20 18 19 17 23 26 24 25 29 32 36 33 32 35 32 29 27 29 36 36 36 35 35 34 37 39
11 18 23 23 12 16 18 24 22 20 20 35 38 22 28 25 25 19 17 21 25 22 23 27 26 27 33 31 30 31 33 35 35 33 32 31 32 36 38 38 38 39 38 41
9 12 12 13 26 25 26 26 25 31 18 17 27 39 36 20 20 24 21 22 26 24 19 30 29 31 33 35 33 31 32 30 30 31 32 34 31 32 35 39 39 39 42 42
26 16 15 22 15 11 16 11 13 13 24 29 23 32 28 24 22 25 24 22 26 25 26 26 30 27 34 35 33 31 30 31 31 33 35 37 34 32 31 32 37 41 43 46
25 19 24 21 28 20 12 13 17 18 20 22 30 26 26 29 23 24 26 23 27 26 29 26 27 30 27 35 40 40 40 36 36 35 36 41 38 35 35 37 38 36 39 42
18 22 11 21 29 28 23 25 23 26 23 25 26 29 29 30 27 26 32 29 24 27 26 26 25 25 27 26 28 30 35 39 40 36 36 41 42 40 39 39 44 39 45 46
25 31 24 28 24 28 36 33 24 20 25 27 30 31 29 30 29 30 31 30 26 31 30 29 27 26 29 29 28 28 28 30 33 37 37 38 41 44 45 46 49 45 47 48
27 31 36 30 25 31 28 28 38 34 26 27 35 37 35 36 34 35 36 33 28 25 28 31 30 31 30 29 28 28 29 30 32 34 36 38 42 44 48 47 50 51 52 51
28 26 31 38 33 23 29 26 20 21 20 20 20 19 24 27 31 32 31 30 29 27 27 28 28 29 29 30 30 29 29 31 33 35 37 41 48 52 51 52 53 54 53 57
30 30 31 36 35 34 24 17 21 17 19 23 28 29 30 30 27 24 23 24 26 26 26 26 24 24 26 26 29 31 34 37 39 43 49 55 59 62 63 63 63 62 61 61
29 27 33 28 30 27 22 18 17 22 24 28 30 27 25 22 21 20 20 20 20 19 18 18 18 19 21 23 26 30 34 38 44 49 52 52 52 57 64 72 76 76 73 68
16 26 23 21 24 28 23 24 23 28 27 29 24 20 20 19 17 16 15 14 13 14 14 15 18 20 21 24 28 33 34 33 34 37 40 41 39 43 49 59 60 69 59 60
11 14 20 20 32 24 20 27 32 30 29 32 36 30 20 15 13 10 8 6 6 9 11 13 15 17 22 24 24 23 23 22 25 29 34 32 37 30 25 39 43 42 62 77
21 16 19 27 27 17 27 24 22 24 26 27 31 30 22 20 17 11 5 5 6 7 11 16 18 18 17 16 15 13 13 15 15 17 17 12 13 22 17 22 12 12 18 18
15 17 21 17 22 26 23 19 20 20 19 18 17 18 16 16 12 9 9 5 6 7 6 6 6 8 10 10 9 7 6 5 6 4 1 3 4 9 11 13 15 5 4 17
14 11 19 25 23 23 24 21 21 23 22 18 16 15 13 10 10 8 7 7 5 5 5 5 5 8 10 8 7 7 4 2 2 6 5 6 8 10 11 17 15 15 15 16
28 29 30 24 24 27 31 31 27 29 30 25 21 19 18 17 13 9 5 6 5 2 3 3 6 9 12 13 14 15 15 10 9 8 4 5 9 11 9 5 6 8 4 6
40 38 38 35 33 32 35 33 28 31 32 26 23 21 19 18 14 11 5 4 12 13 11 5 2 2 0 2 3 5 8 10 15 16 13 11 10 11 11 10 11 12 12 21
37 36 34 30 30 27 31 30 27 27 25 23 23 22 19 18 16 13 13 16 16 11 8 8 9 7 4 4 3 1 2 3 4 9 11 14 14 14 18 21 23 25 27 28
32 32 30 27 26 30 27 24 22 20 19 17 14 15 15 16 13 9 9 14 13 11 6 3 5 3 4 3 4 4 4 3 1 1 2 5 9 10 10 11 13 11 6 20
24 23 22 21 17 14 15 18 13 12 12 11 8 8 9 8 6 4 4 6 3 2 2 1 4 6 4 4 4 2 1 3 6 7 6 6 3 3 6 9 7 6 9 13
20 19 17 14 13 17 16 14 11 9 7 5 6 6 6 5 5 5 5 6 7 9 9 10 11 13 12 10 9 9 12 12 14 11 9 8 7 7 6 6 6 6 7 15
15 14 14 13 12 10 9 8 7 7 7 8 8 7 7 7 8 9 9 11 12 12 12 12 11 11 11 10 10 11 12 13 12 13 16 16 15 14 13 12 10 8 7 8
15 14 13 14 15 12 10 8 6 5 4 4 5 7 8 9 11 12 14 16 16 16 17 16 16 16 15 14 13 12 13 14 14 16 16 15 16 17 18 19 18 18 19 17

GFSNGP_700_spd_024.txt.gz
Wind_Speed
25 15 15 30 41 42 43 41 38 30 28 26 14 13 11 10 10 16 18 15 18 18 26 29 29 28 25 23 25 32 38 39 39 34 34 34 33 33 31 33 32 30 29 33
23 15 11 16 21 28 38 41 38 36 31 20 21 25 28 22 18 20 23 22 17 21 22 28 29 28 30 30 26 30 43 41 37 39 37 36 36 35 36 36 34 34 31 30
23 19 16 23 30 28 28 30 30 35 29 26 26 24 24 25 25 26 32 28 22 21 21 24 29 29 30 32 27 27 38 44 39 38 40 40 40 38 36 38 38 36 34 32
11 12 15 21 23 27 33 29 29 27 25 23 23 24 24 24 26 22 19 25 29 29 24 25 29 31 34 32 30 28 35 36 39 36 37 37 36 35 36 39 41 39 36 36
19 20 8 11 10 11 17 27 27 23 21 21 22 26 30 25 24 21 16 19 22 26 27 28 31 33 32 32 32 30 36 33 37 37 34 34 34 33 35 39 40 40 38 36
13 20 14 10 25 10 7 14 17 16 16 15 18 18 22 21 21 18 18 19 16 21 28 28 29 33 35 32 34 32 31 36 36 38 38 36 30 29 31 34 39 43 42 39
24 19 17 14 6 7 14 7 7 11 13 28 27 20 14 21 26 27 23 25 24 19 26 27 25 31 32 31 31 32 32 32 34 37 41 39 35 36 38 37 39 41 41 42
24 25 27 14 14 14 10 10 14 13 15 17 24 29 28 17 19 28 27 28 28 25 20 30 27 27 32 31 32 34 36 38 36 34 37 38 38 39 39 41 42 42 41 40
20 26 19 17 26 20 23 19 18 27 21 19 17 19 21 28 24 23 33 30 28 25 21 26 28 30 30 30 29 32 36 37 37 36 34 36 36 35 39 39 45 45 46 43
28 31 29 22 23 21 20 34 28 25 19 18 18 19 23 26 26 27 35 30 31 27 27 25 28 30 30 29 30 30 28 29 34 39 40 42 42 41 39 38 44 46 46 46
29 30 28 27 29 24 22 21 40 39 29 22 26 27 30 31 31 28 31 33 32 29 26 24 32 31 31 29 28 29 30 29 28 27 26 29 30 31 34 34 37 39 39 46
33 22 25 27 25 33 31 31 35 39 41 41 29 22 22 27 29 28 28 30 31 29 25 26 31 34 35 33 33 32 30 29 29 28 29 30 31 35 37 38 42 43 44 46
26 23 25 26 29 33 34 34 33 34 36 41 40 36 31 30 24 24 27 30 31 30 30 31 30 31 31 32 33 32 31 29 29 29 31 33 36 39 43 48 50 56 58 60
31 29 38 32 30 27 28 34 28 27 23 25 28 29 28 29 31 34 35 34 33 32 31 29 27 26 26 28 28 27 27 28 30 34 36 40 43 47 52 55 55 57 61 63
30 31 32 34 31 27 27 29 26 24 20 25 28 33 35 34 33 34 34 31 28 26 26 24 23 23 22 23 23 25 27 29 32 34 37 41 45 45 47 49 49 51 54 60
13 19 20 22 25 25 24 28 29 23 23 31 32 33 33 31 30 28 27 26 24 22 19 19 19 17 19 20 22 24 27 29 31 33 37 41 40 40 39 41 38 33 36 41
16 14 12 19 24 26 26 31 18 23 28 35 31 29 28 27 26 24 23 21 19 17 14 12 13 12 11 11 10 14 20 21 23 25 27 27 27 26 24 20 20 22 23 20
11 13 15 12 14 28 17 19 30 33 22 34 31 28 28 24 17 16 16 15 13 11 8 6 7 9 7 9 9 10 12 16 15 13 12 11 11 11 13 14 13 12 11 13
17 15 17 14 28 23 27 25 26 27 21 22 21 21 20 21 22 25 28 27 23 21 17 22 21 27 20 15 13 12 11 11 10 8 6 8 7 5 3 3 4 3 4 5
23 26 17 19 19 22 24 25 27 28 29 24 19 19 18 20 18 16 14 13 12 13 15 23 14 13 16 17 18 19 18 17 15 13 9 8 10 10 8 2 3 5 7 8
39 34 37 40 41 42 41 33 33 30 28 30 29 28 26 22 16 13 8 7 9 9 9 8 7 7 7 9 10 11 11 13 14 13 13 14 16 17 16 16 12 11 11 6
40 39 39 35 38 38 34 31 29 28 22 20 21 18 11 14 11 8 10 11 13 9 6 6 8 7 4 2 2 4 5 6 6 8 11 14 17 20 23 23 22 19 19 23
32 31 30 28 28 28 26 27 27 21 16 19 15 12 11 11 10 10 8 12 12 9 4 3 3 1 1 0 3 2 2 2 3 5 4 6 10 13 13 13 15 19 16 9
25 25 24 23 21 16 12 14 11 9 7 5 5 5 6 4 3 2 4 5 3 3 4 5 4 2 2 5 8 8 8 8 8 9 9 10 10 9 10 10 10 9 10 6
14 13 12 12 11 12 11 9 7 5 4 2 1 1 1 2 3 3 4 5 5 6 8 9 10 11 11 11 11 12 14 15 15 18 18 16 15 14 12 12 12 13 11 9
6 5 7 8 9 7 6 4 4 4 4 5 5 6 6 7 7 7 6 7 8 9 9 9 9 9 9 10 11 12 13 15 16 16 16 16 18 19 18 17 18 18 18 16
12 10 9 8 7 6 5 6 6 7 7 8 9 10 10 11 11 12 12 13 13 14 14 14 14 14 13 13 13 14 15 16 16 17 18 19 19 19 19 19 20 21 22 22

GFSNGP_700_spd_027.txt.gz
Wind_Speed
35 22 30 39 44 43 44 38 38 23 26 16 13 13 16 16 15 14 13 20 26 28 25 28 29 24 18 19 21 20 23 32 35 32 31 32 31 28 29 29 27 27 29 28
31 33 16 20 37 44 43 39 36 31 21 25 14 15 13 12 12 12 12 14 14 15 21 31 35 31 28 23 22 21 23 23 29 39 37 35 33 31 32 32 30 31 31 29
26 31 19 23 29 33 37 40 34 36 31 18 16 15 16 15 14 13 13 12 15 17 15 24 29 32 32 30 27 28 27 27 28 38 40 41 37 34 33 34 35 34 35 35
23 26 20 26 27 23 26 29 33 28 23 26 21 19 19 17 15 15 18 22 20 20 19 20 22 20 28 33 36 33 32 29 28 34 43 41 40 39 38 37 37 38 38 38
16 28 15 29 21 27 31 31 24 25 22 19 19 17 20 20 21 22 19 16 18 19 22 24 27 27 29 34 37 35 32 31 27 34 40 43 40 41 41 42 42 42 41 40
12 16 18 8 16 13 17 20 27 28 20 19 18 18 12 18 20 19 17 17 18 20 22 24 34 32 33 36 36 34 31 33 30 32 36 39 41 40 42 39 38 41 41 40
22 14 17 10 10 19 17 8 12 18 20 18 19 20 26 18 24 27 29 28 28 27 26 28 28 35 35 35 38 31 35 36 32 27 35 36 41 42 41 41 43 43 42 41
26 25 20 11 10 13 11 15 10 12 14 18 15 19 25 27 28 25 29 32 29 27 28 26 23 31 31 29 30 33 34 32 33 30 32 38 39 43 45 44 41 40 41 42
27 33 16 24 12 10 8 8 5 4 6 8 10 14 28 27 27 23 20 26 32 31 31 31 27 29 32 29 28 32 32 27 28 31 32 34 36 38 41 41 39 35 38 39
22 26 20 23 18 19 17 14 14 12 13 12 13 14 21 26 24 24 26 21 30 33 33 33 30 26 34 32 30 31 31 28 24 27 30 32 34 36 37 38 39 40 38 36
33 30 28 26 24 22 24 24 26 20 20 20 18 19 17 17 20 20 26 26 25 33 35 31 31 26 30 32 32 31 28 30 31 28 28 29 29 31 33 34 33 32 33 32
29 23 25 28 28 29 27 36 40 34 32 32 34 30 24 16 21 26 28 28 26 27 33 31 32 29 26 33 33 31 29 28 29 28 29 28 28 28 29 29 30 29 30 33
30 31 29 25 24 23 28 29 42 51 47 35 37 38 32 32 30 28 23 24 26 27 33 30 29 28 29 31 34 34 34 32 32 29 30 31 31 31 30 32 33 34 37 40
29 33 30 30 27 23 24 26 32 38 40 48 53 51 47 40 44 37 27 24 26 28 31 32 31 31 31 31 31 32 32 30 30 29 30 31 31 30 31 34 37 39 43 48
37 38 33 32 36 37 32 25 25 28 24 32 37 40 42 36 28 22 25 28 33 34 34 35 33 32 31 30 29 28 29 28 29 29 28 27 28 31 34 36 38 41 45 50
31 29 33 41 42 40 34 30 28 31 33 34 31 33 24 26 34 34 33 32 34 32 32 32 32 30 30 30 29 28 29 27 26 27 29 29 28 29 33 39 44 47 46 46
28 23 21 23 22 20 23 23 23 23 26 26 32 29 42 44 40 39 41 32 28 27 27 26 24 24 23 22 24 25 24 25 26 26 25 27 31 33 33 33 34 36 39 39
12 15 12 7 5 12 14 20 21 24 29 19 22 40 33 44 37 31 31 28 25 23 21 19 18 16 14 13 13 16 17 19 20 19 19 21 21 23 24 27 31 31 27 23
15 9 11 14 15 13 12 15 26 21 31 32 28 39 34 40 37 37 33 28 24 20 19 16 14 13 13 13 15 17 23 21 20 19 16 14 15 16 17 18 18 18 16 14
30 21 15 18 26 21 25 27 29 25 23 25 19 22 21 20 18 16 16 15 17 13 11 12 12 12 12 13 17 21 22 21 20 21 19 17 15 17 17 16 15 14 11 10
41 43 42 39 31 33 35 30 25 25 25 26 26 25 23 20 20 20 21 23 14 11 8 11 9 9 10 10 13 15 17 17 16 16 16 18 19 21 22 22 24 24 22 17
37 36 33 33 35 36 34 29 26 25 25 25 25 26 21 18 15 11 9 10 17 15 12 9 8 7 7 8 6 5 6 7 7 8 10 13 16 19 21 24 24 24 26 29
29 29 29 28 28 27 24 23 22 22 21 21 20 19 17 17 15 12 8 7 6 6 4 4 4 3 4 4 3 3 5 6 6 7 6 7 8 10 12 15 17 16 15 16
18 20 20 19 17 15 15 15 13 13 13 11 10 9 7 6 5 4 3 3 4 5 5 5 4 5 5 6 7 8 9 11 12 12 12 13 14 15 15 15 15 15 14 14
13 11 10 11 12 11 9 8 7 6 4 3 1 0 1 2 3 4 6 7 8 8 9 11 12 12 12 12 13 13 14 14 16 17 18 19 19 19 19 19 18 18 18 18
10 11 12 10 9 6 7 7 4 3 4 4 5 6 7 6 6 6 7 7 9 9 10 9 11 12 12 12 13 14 14 14 16 16 17 18 19 20 21 20 21 22 22 23
12 8 8 9 10 10 9 9 10 10 10 10 10 10 10 11 10 11 11 12 12 12 12 12 12 13 14 15 16 16 18 19 17 18 20 21 21 22 24 25 26 26 26 25

GFSNGP_700_spd_030.txt.gz
Wind_Speed
45 34 30 39 42 43 48 38 38 29 27 18 15 18 17 19 22 24 29 31 32 27 33 31 28 26 27 26 28 31 31 28 27 26 27 27 27 26 25 25 22 22 24 23
25 34 26 24 42 42 42 41 34 32 25 19 20 21 18 20 20 23 21 21 24 30 27 29 33 27 26 23 23 27 27 25 25 32 31 31 29 29 29 27 26 25 24 25
24 23 26 26 25 40 41 40 35 35 26 26 23 25 24 17 13 10 14 17 16 20 32 33 31 32 32 25 21 22 21 20 21 21 23 30 37 34 32 30 30 28 26 27
18 17 19 23 24 18 35 36 36 29 29 18 20 24 21 17 14 10 11 11 11 13 18 28 36 36 36 34 31 29 27 25 25 24 22 24 32 38 37 34 33 32 30 29
8 13 15 17 20 25 14 28 34 32 25 18 15 16 15 12 14 14 14 16 16 16 19 18 19 20 18 22 29 31 32 29 28 29 27 25 27 33 36 36 36 36 35 34
8 7 12 13 15 14 24 17 4 10 15 16 12 10 11 18 21 22 19 22 21 21 23 23 25 28 27 27 35 37 36 34 32 32 31 29 26 30 37 38 36 37 38 40
12 8 3 10 8 17 21 6 10 11 14 14 13 17 19 26 25 27 26 24 26 25 27 31 31 34 42 37 35 35 31 31 32 33 33 32 30 31 32 40 41 39 41 43
19 14 3 1 5 10 10 10 17 18 14 17 21 17 13 23 24 23 23 24 28 30 29 31 34 36 40 39 38 37 34 33 33 32 34 36 34 33 34 35 42 44 43 42
25 25 5 5 8 2 1 4 9 13 13 7 2 12 14 26 26 22 18 20 27 32 34 33 33 30 31 31 34 35 34 33 31 33 33 34 36 35 34 35 39 43 42 43
14 26 18 12 14 5 5 7 6 6 7 3 1 9 31 36 29 17 8 25 19 19 26 35 33 30 30 30 33 35 35 31 30 32 29 29 32 33 31 34 38 39 41 41
16 19 20 16 16 16 14 12 8 15 12 10 17 18 23 18 15 19 18 18 14 16 18 27 31 31 31 28 27 34 36 33 29 30 28 26 28 31 31 33 36 37 38 37
23 20 20 21 19 21 25 22 20 19 22 22 25 24 17 16 16 13 10 11 13 15 22 22 24 30 31 29 28 27 33 33 31 30 30 29 28 27 27 28 29 28 26 27
30 32 32 29 26 16 18 20 28 27 28 31 30 26 23 23 20 18 12 14 18 20 21 22 20 24 29 28 28 26 31 33 33 31 31 30 28 25 22 25 27 29 29 27
42 40 42 39 35 26 26 22 37 37 46 42 36 30 29 35 33 30 26 28 29 28 26 23 22 22 23 26 27 27 27 31 33 32 33 33 31 28 26 25 26 27 26 27
48 51 47 40 39 29 25 34 34 53 58 52 48 44 44 39 32 36 39 40 32 42 36 24 23 24 22 22 23 25 26 26 30 31 30 27 27 26 27 27 27 28 27 26
38 43 46 39 36 38 40 41 38 42 44 49 66 66 63 54 54 55 41 41 48 42 39 27 23 23 22 23 24 24 25 26 28 28 28 29 28 28 28 29 28 28 31 31
22 28 35 44 40 36 30 36 42 39 34 40 42 43 39 33 25 31 38 36 44 36 39 29 22 23 22 21 23 23 24 25 27 27 25 25 25 25 26 26 27 29 33 32
9 11 18 21 23 27 28 24 23 20 21 21 26 37 26 26 32 28 41 33 34 31 25 25 27 24 22 24 23 22 21 21 21 20 20 18 18 20 23 26 27 27 29 29
11 7 10 4 7 7 11 17 18 20 19 19 24 24 31 32 50 48 51 61 36 30 25 26 22 22 21 21 20 22 17 12 13 15 18 20 20 20 22 22 23 24 23 23
26 19 10 8 6 9 13 13 15 16 14 19 34 35 31 45 42 36 36 29 29 29 30 32 32 28 22 19 17 15 15 14 14 16 17 20 21 21 22 23 22 22 21 20
39 31 32 34 35 38 43 32 25 29 26 22 23 23 22 28 40 34 27 20 27 28 23 24 23 21 20 17 17 16 13 13 13 15 16 19 21 22 22 23 24 25 25 26
32 32 31 29 31 32 33 30 22 23 24 23 22 25 23 21 18 16 15 19 23 20 16 15 14 14 14 12 10 8 7 7 7 9 10 11 13 15 17 19 19 21 22 23
24 24 26 26 26 25 25 24 23 22 22 23 25 25 20 18 18 13 14 16 15 14 10 8 8 5 5 5 5 5 5 6 5 5 7 8 7 8 9 11 12 14 15 15
15 16 20 24 22 14 13 14 15 15 14 15 14 14 15 13 11 9 8 8 6 3 2 5 5 4 3 4 6 7 10 10 9 9 11 13 14 15 16 17 18 19 17 15
13 17 11 7 12 17 16 13 12 10 9 9 7 6 5 4 3 1 0 3 7 5 4 4 4 6 8 10 11 11 11 13 15 15 15 15 17 17 17 17 18 19 20 20
17 10 14 17 10 3 3 8 8 6 7 6 5 5 5 4 4 3 3 4 6 7 6 7 7 7 10 11 11 11 10 10 11 15 17 16 17 19 20 21 21 22 22 23
13 11 9 8 10 12 9 8 8 7 5 7 10 8 8 7 7 6 6 7 6 7 8 8 7 9 11 11 12 13 15 13 14 17 18 19 21 20 20 24 27 28 27 22

GFSNGP_700_spd_033.txt.gz
Wind_Speed
31 28 25 28 51 44 48 37 40 36 23 15 9 23 29 28 28 30 40 27 38 37 32 26 19 25 25 24 29 28 28 26 23 21 21 21 22 23 22 22 22 22 22 23
19 31 30 30 49 46 43 43 35 35 33 26 18 20 23 24 29 31 32 34 30 36 31 26 20 18 25 19 21 24 30 28 27 26 25 24 23 22 23 24 23 23 23 21
5 17 13 10 27 49 45 40 41 35 35 26 27 26 23 28 29 29 31 31 32 30 38 36 28 25 22 21 16 19 24 25 26 29 30 27 27 28 28 27 27 26 24 23
7 3 2 16 26 11 41 35 34 42 15 30 30 28 26 28 31 30 29 30 29 27 25 35 40 40 33 26 22 18 17 20 24 24 23 22 23 27 33 34 32 30 29 28
7 3 1 20 8 7 18 19 8 26 27 35 37 34 30 25 26 30 30 30 29 26 22 24 27 30 30 33 28 24 24 23 23 23 22 21 20 19 22 28 35 36 33 32
8 5 2 12 4 11 11 17 11 11 36 37 35 37 31 29 30 27 27 30 30 27 23 22 22 21 18 30 33 35 30 29 28 27 26 25 24 22 20 19 25 33 34 33
8 7 7 10 16 9 9 9 17 25 32 34 33 27 29 30 29 32 32 27 26 33 30 28 25 24 24 26 27 28 26 26 28 31 31 31 29 28 27 25 24 29 33 34
3 5 5 15 15 23 14 13 20 26 31 31 27 23 27 27 27 27 25 25 26 27 28 29 32 29 30 32 33 34 33 36 33 31 33 33 33 32 33 32 30 29 32 34
6 8 10 7 22 18 6 3 14 20 24 19 21 23 26 23 24 28 28 26 25 23 29 31 35 39 38 39 37 35 38 39 36 34 31 33 34 34 34 34 33 31 33 34
9 13 4 9 5 4 10 6 2 8 10 16 16 16 23 25 20 21 24 25 26 23 25 29 35 37 39 40 44 46 46 44 40 35 32 32 34 35 34 33 33 34 33 37
17 8 8 7 11 9 9 9 12 9 8 3 8 11 18 26 21 24 23 25 25 24 22 19 21 30 31 30 30 29 27 32 35 34 32 30 30 32 31 31 32 31 30 32
27 20 24 16 16 18 17 14 12 16 14 11 9 10 12 20 27 23 24 26 20 21 19 14 15 16 22 26 26 26 26 24 27 31 34 32 30 33 30 29 31 31 31 32
38 36 35 29 27 24 19 21 14 16 17 16 19 17 12 21 30 35 35 31 21 17 15 14 14 14 16 21 24 25 23 25 24 29 33 34 33 33 33 33 31 29 29 28
30 40 49 42 40 35 31 29 32 30 29 26 23 20 20 24 32 29 26 22 20 19 13 12 12 11 16 19 22 23 26 28 25 25 28 30 30 30 30 29 29 28 26 24
33 40 52 53 53 46 38 36 38 40 42 38 32 30 30 32 34 30 28 24 23 24 25 24 23 16 15 20 21 20 21 22 23 22 23 24 26 27 30 31 28 27 26 26
23 26 46 52 51 51 47 43 43 43 44 47 44 39 40 40 36 35 33 31 26 21 26 32 35 36 28 23 20 20 21 22 24 24 26 28 30 31 32 34 33 31 29 27
21 12 8 30 37 36 40 43 45 49 48 50 47 47 51 49 44 41 40 39 31 33 35 38 32 33 32 28 22 23 26 26 24 25 26 25 26 28 29 29 28 27 26 26
17 8 4 16 29 35 35 36 36 42 46 45 44 53 51 53 57 52 49 47 42 43 50 50 38 36 29 28 28 27 28 29 28 27 27 27 26 26 25 25 24 23 23 23
11 11 7 3 10 17 23 31 34 36 35 35 32 33 36 37 45 58 54 51 38 38 35 35 35 37 43 27 26 27 27 26 26 26 23 20 18 18 18 19 19 20 23 24
35 20 7 5 7 9 8 9 13 16 16 17 22 23 21 22 30 32 36 30 30 29 30 35 34 31 31 24 18 28 28 26 26 25 24 21 18 18 19 20 20 21 22 23
32 32 32 28 21 20 15 18 15 14 14 19 22 23 23 28 37 28 36 32 38 38 41 28 33 34 34 35 29 22 20 23 20 21 20 21 20 20 21 22 23 23 25 27
26 29 26 25 27 23 19 20 25 27 23 27 30 31 36 38 36 36 42 43 39 41 42 40 30 27 29 34 27 15 16 18 20 19 20 19 19 19 19 20 20 20 21 22
20 21 22 24 24 25 24 20 20 20 20 19 16 17 14 18 25 35 27 21 24 23 19 19 21 24 19 18 16 11 10 10 10 10 10 10 10 12 12 12 13 15 16 16
15 17 17 18 21 17 16 15 16 18 18 18 17 16 16 16 17 16 18 27 27 21 22 22 21 17 12 10 5 2 8 9 9 11 11 12 16 17 18 19 19 18 15 16
13 13 10 9 13 17 20 18 15 13 13 13 12 13 13 15 14 14 11 8 8 10 8 6 7 6 4 1 5 10 13 15 16 16 15 17 18 17 16 18 18 18 17 16
12 11 15 16 14 11 12 12 11 12 13 11 11 10 9 7 6 5 4 3 2 2 2 2 3 2 5 6 8 10 13 15 16 15 15 16 17 17 18 18 18 17 17 17
11 1 4 4 12 15 14 15 13 7 7 9 8 6 5 3 3 2 2 1 1 2 3 5 6 6 8 11 10 10 13 15 16 15 15 15 16 19 22 23 24 20 14 16

GFSNGP_700_spd_036.txt.gz
Wind_Speed
22 28 23 20 21 40 41 43 39 39 41 46 24 22 16 26 39 44 44 31 39 42 41 39 24 28 18 19 20 22 24 25 25 24 24 24 23 23 23 24 22 21 20 18
16 16 20 14 24 19 43 45 40 37 35 29 22 17 18 22 29 35 35 36 34 36 40 40 27 27 24 21 21 24 23 24 23 22 21 21 22 22 23 23 22 23 22 20
6 10 14 6 6 17 37 40 44 34 31 25 21 18 21 25 27 28 30 33 34 37 37 38 29 22 28 24 17 21 24 24 23 23 22 21 20 22 22 22 22 23 23 23
8 2 8 11 9 12 18 20 25 24 37 32 22 24 27 25 27 29 30 34 36 35 35 38 31 26 21 23 16 14 19 22 25 28 27 26 26 26 26 25 26 26 26 25
5 8 12 11 6 8 10 14 9 15 30 25 34 32 32 32 33 33 31 32 35 38 40 39 36 30 26 24 23 22 20 20 21 22 24 27 27 26 26 29 31 32 33 32
7 3 5 12 9 8 25 18 21 21 32 34 37 39 35 33 36 39 38 35 33 31 35 40 46 43 39 34 32 26 25 21 18 19 19 22 23 23 21 21 21 22 29 35
3 7 11 16 5 9 13 8 23 31 35 36 37 39 39 34 34 34 35 35 33 32 32 32 34 35 37 32 30 30 30 27 24 22 25 26 24 23 23 23 22 22 22 26
5 7 5 14 21 32 15 8 17 26 29 34 38 40 40 37 35 33 33 32 31 29 28 29 31 30 29 27 29 32 32 32 32 33 31 30 29 29 29 28 27 26 26 25
8 11 11 13 25 18 11 19 9 15 19 20 28 35 35 36 35 35 33 31 28 26 27 29 31 29 27 29 30 30 30 31 32 33 32 30 30 30 33 33 33 32 32 31
9 5 3 16 19 21 9 13 10 3 12 18 22 25 30 29 31 31 29 27 26 24 23 24 28 35 34 31 30 31 32 30 30 32 34 34 35 36 35 33 34 35 35 35
8 9 3 9 11 12 10 0 3 1 3 17 21 24 25 26 28 30 31 29 27 26 26 28 29 34 38 39 38 38 38 37 36 36 38 41 44 41 36 33 34 34 34 34
21 15 14 14 13 13 13 7 10 10 8 8 16 20 25 26 27 27 25 26 26 25 25 25 22 27 33 38 41 43 43 43 40 35 33 36 38 36 36 33 30 30 30 31
27 26 27 24 23 19 20 19 12 10 14 11 14 14 14 23 20 21 21 19 17 16 16 18 19 22 22 22 27 32 35 34 33 30 27 28 32 34 35 34 32 30 29 30
14 25 33 33 31 25 29 23 31 22 15 20 16 16 16 13 18 17 19 21 21 21 18 18 20 22 22 20 19 24 29 31 32 29 28 29 27 28 31 32 30 28 27 27
12 18 34 40 41 36 35 32 33 40 39 31 25 23 21 21 22 21 18 22 24 25 29 27 22 20 17 17 17 16 19 25 29 28 28 28 24 23 25 26 26 25 25 23
26 25 22 35 48 48 46 40 40 38 39 44 43 38 32 32 29 29 27 23 26 24 22 26 29 29 25 20 14 11 15 18 21 23 23 23 24 25 26 29 29 29 27 28
30 29 23 17 15 34 39 36 38 41 42 42 43 44 42 38 39 33 32 33 28 29 32 29 27 26 25 21 18 20 18 18 21 24 24 25 25 26 30 31 31 30 30 31
23 25 23 22 14 4 16 26 30 33 34 34 36 40 45 48 47 41 39 40 38 37 36 34 32 29 28 27 31 32 30 26 25 27 28 28 27 29 31 32 34 35 35 33
30 21 20 17 11 7 13 21 26 28 29 31 29 30 32 40 48 51 50 49 46 44 42 37 33 29 29 31 39 46 46 35 28 31 31 30 30 29 29 30 30 29 29 28
28 28 25 18 13 10 11 16 24 23 27 30 30 29 30 33 37 42 52 56 56 55 51 47 45 43 36 31 41 43 36 35 34 34 33 31 29 29 28 27 27 27 27 27
23 26 23 23 20 11 5 10 9 9 12 13 15 18 21 24 27 29 30 34 41 49 54 50 45 34 30 31 28 42 43 35 31 31 31 29 29 28 27 25 24 25 26 27
21 22 22 23 22 20 17 13 10 6 5 10 14 17 18 16 19 21 24 25 22 23 33 29 30 39 40 38 38 34 37 37 36 32 28 31 31 27 25 24 24 24 25 25
19 20 22 23 21 23 24 21 16 16 15 11 11 15 23 29 33 35 29 21 28 33 31 31 33 27 27 25 16 18 20 22 21 22 25 21 21 21 18 16 16 16 16 17
17 20 19 22 25 22 18 17 16 20 20 17 15 15 17 13 16 30 37 40 35 35 38 37 33 28 21 15 12 13 13 15 18 21 21 23 21 21 19 16 16 17 17 20
10 14 16 17 19 22 25 24 16 13 15 11 11 15 17 17 13 16 16 16 18 25 29 30 27 25 21 22 15 10 8 7 6 7 7 10 11 11 13 15 17 18 19 20
5 5 8 12 12 13 14 18 21 18 14 12 11 10 8 6 8 10 11 11 12 12 10 9 11 12 11 8 4 4 3 5 8 9 12 14 13 14 15 14 14 15 18 20
9 11 12 16 18 12 13 16 14 12 14 13 9 5 6 8 11 9 8 7 6 5 6 6 7 9 9 8 9 10 12 10 11 12 16 18 18 17 16 13 12 14 17 20

GFSNGP_700_spd_042.txt.gz
Wind_Speed
33 36 30 23 21 32 42 42 29 24 35 34 39 32 26 21 25 33 30 30 31 31 32 36 37 36 30 27 30 30 31 31 33 33 33 33 33 32 30 29 26 25 25 24
32 29 33 24 12 17 28 44 34 24 34 32 31 30 27 27 26 31 34 35 36 38 35 41 32 36 30 28 29 29 25 26 27 31 31 31 32 31 30 27 26 26 25 24
15 14 17 17 19 12 20 32 38 44 37 32 28 25 28 26 25 29 36 42 44 43 40 37 31 34 34 29 27 31 27 25 23 26 28 27 28 29 29 27 27 25 23 23
14 5 11 15 16 22 22 24 32 35 32 31 30 29 29 27 28 30 39 47 52 49 48 36 30 32 34 31 27 29 23 18 18 20 23 23 25 25 25 25 24 23 22 20
6 5 20 21 21 19 22 12 21 24 25 26 24 22 21 23 22 20 24 23 34 44 41 31 31 33 35 33 27 27 26 20 17 17 18 19 20 20 19 19 20 19 20 20
7 7 5 10 16 21 29 14 11 20 23 26 22 17 19 20 17 16 23 31 36 36 35 34 37 36 36 33 30 27 20 19 21 22 20 18 18 17 17 19 20 21 22 22
28 7 5 6 20 27 8 10 15 17 23 24 24 22 17 18 16 14 30 30 37 39 35 29 34 36 37 33 33 28 24 21 21 19 19 18 16 16 19 21 23 23 24 25
5 2 5 8 28 16 17 17 15 20 21 19 20 21 18 16 16 15 28 34 32 33 33 36 31 33 40 34 31 28 28 25 21 20 19 19 17 18 20 22 22 23 23 24
5 9 15 25 30 28 23 18 18 19 24 23 22 23 22 20 18 18 21 26 24 23 29 33 34 32 39 37 34 33 32 30 28 25 23 24 22 23 23 21 23 24 24 23
8 16 17 22 28 26 23 20 21 19 22 25 25 22 26 26 23 23 23 23 23 23 26 28 31 33 41 42 41 40 38 34 32 30 30 29 29 27 21 24 26 27 24 23
13 7 14 18 25 24 23 22 20 18 21 26 28 22 21 25 26 25 26 27 25 23 22 21 22 24 27 34 37 36 36 35 34 33 32 33 33 32 29 27 29 31 28 26
13 7 4 10 19 21 22 21 19 16 16 24 28 26 23 20 26 29 27 28 30 29 27 25 24 22 22 22 23 25 27 29 31 34 36 36 37 37 33 29 29 30 32 32
13 10 3 11 15 24 24 19 17 15 12 12 22 31 25 22 20 25 27 27 28 29 31 31 29 29 28 28 29 30 31 33 36 37 37 37 38 38 38 37 35 34 35 38
9 11 4 8 13 17 24 25 20 15 17 8 13 16 25 24 23 20 20 23 25 25 25 27 28 28 29 30 29 28 27 28 31 35 38 40 40 40 40 40 39 40 36 34
8 11 13 9 6 19 24 26 24 30 20 17 14 14 13 13 20 21 20 19 20 21 24 26 27 26 26 25 23 23 20 18 20 23 25 27 31 38 42 41 37 34 33 33
27 10 9 14 16 8 20 26 25 26 34 30 23 19 20 24 17 17 17 18 17 16 17 20 23 25 24 22 22 21 20 20 20 22 21 18 20 24 28 30 31 33 34 35
32 29 21 14 16 19 11 12 27 30 28 33 37 33 23 24 28 26 22 21 17 17 15 13 14 18 19 21 23 21 20 18 21 23 17 11 9 9 11 15 22 27 29 27
27 27 24 22 10 8 10 7 4 7 20 28 29 34 41 37 32 33 30 30 30 23 20 18 15 15 18 19 21 23 22 22 20 17 14 10 8 8 9 11 14 18 21 23
24 25 24 25 23 14 8 7 5 6 10 15 20 26 31 40 50 57 49 41 35 32 31 27 25 23 21 18 20 22 21 23 27 26 24 18 14 12 12 13 15 20 24 26
22 25 26 20 21 21 20 17 14 7 6 9 13 17 21 27 32 37 47 42 54 42 38 37 36 33 32 27 24 24 24 28 32 30 31 27 21 17 18 17 17 21 27 30
20 21 23 23 22 20 17 17 18 16 14 8 7 9 14 21 25 29 33 35 38 50 52 44 46 44 42 40 36 34 33 32 34 34 29 24 24 20 22 21 24 21 23 28
19 20 23 23 23 22 20 18 15 15 15 16 14 11 9 10 12 14 20 26 28 31 42 49 50 50 46 46 47 44 40 37 30 31 25 24 25 24 21 23 27 28 27 30
18 17 19 21 24 23 24 24 23 18 14 14 13 10 11 11 10 14 15 16 22 23 25 26 35 43 50 39 49 36 45 41 34 24 26 30 29 25 30 31 32 37 37 35
16 17 17 19 21 20 19 21 23 22 18 14 14 15 10 8 9 13 17 21 24 23 17 13 20 27 27 25 31 32 27 35 37 32 26 36 29 30 34 32 32 34 32 33
16 17 16 17 19 19 18 19 19 20 20 18 12 12 11 13 6 7 9 4 6 18 19 18 20 24 25 32 33 25 23 31 35 40 37 33 30 36 35 35 33 32 32 31
15 14 15 16 18 19 17 19 19 20 20 19 17 17 11 11 13 9 5 7 12 5 20 22 27 28 28 26 25 25 28 26 24 25 32 27 31 26 25 25 24 24 25 25
16 15 14 13 14 15 17 18 17 16 17 17 14 15 17 15 10 14 13 10 7 4 5 15 22 22 21 20 19 17 19 15 12 12 12 12 12 13 16 16 16 17 16 17

GFSNGP_700_spd_045.txt.gz
Wind_Speed
20 28 34 36 36 30 25 34 38 39 33 36 39 24 17 21 29 31 32 33 34 31 25 29 38 33 34 33 31 36 38 36 35 34 34 34 34 33 32 32 29 28 27 26
26 31 32 38 43 38 31 38 33 23 23 29 29 29 36 33 29 26 26 31 35 34 28 25 30 35 35 33 31 34 35 36 35 35 36 36 36 35 34 33 31 29 28 27
31 23 24 33 46 36 26 26 37 42 27 22 25 24 25 25 24 25 27 29 33 35 33 30 27 35 33 32 31 32 32 31 34 34 36 36 35 36 34 33 31 29 28 26
30 25 11 19 23 31 18 21 38 37 42 33 26 25 22 24 25 24 26 31 35 36 40 37 30 35 35 34 32 32 28 30 29 33 35 34 33 34 32 31 30 28 26 24
12 13 22 19 23 35 22 18 33 37 41 41 38 31 29 29 26 25 24 27 36 41 42 42 37 34 35 32 35 32 28 28 29 29 28 29 31 31 30 29 29 28 25 24
17 10 5 19 30 35 28 11 25 40 37 37 31 29 31 29 24 23 22 27 39 43 47 46 44 36 38 35 32 31 28 29 26 25 27 27 27 26 26 26 26 26 25 23
31 17 19 8 24 30 9 13 17 22 30 35 35 29 26 25 23 22 21 23 38 45 52 54 49 42 39 36 34 31 31 28 26 23 23 24 24 25 25 25 24 24 24 22
22 12 13 7 28 18 20 22 23 21 25 27 24 19 16 21 24 21 14 18 25 32 39 45 50 40 37 38 37 34 31 27 26 27 27 26 26 26 26 25 25 24 24 24
3 1 6 23 32 33 28 24 25 25 27 30 25 21 17 12 15 14 12 17 24 28 34 42 40 36 34 41 40 39 33 30 29 30 29 28 27 27 25 25 26 26 27 28
2 6 12 22 31 32 29 28 26 27 28 29 29 24 20 17 13 12 15 22 25 29 32 32 31 30 31 41 38 41 37 34 34 33 32 32 30 28 27 23 23 23 21 22
22 11 7 13 27 30 28 27 26 28 27 28 28 30 24 22 20 17 17 20 24 27 27 28 29 34 39 41 40 33 39 38 38 35 34 33 30 28 28 25 22 24 24 25
19 20 8 6 23 26 25 23 23 24 27 30 26 25 26 24 23 22 21 21 22 25 25 25 27 29 32 38 46 47 43 42 42 39 35 34 29 27 31 33 34 35 30 28
16 14 10 5 14 23 23 22 21 20 24 24 28 24 21 25 24 24 22 23 24 25 27 27 26 26 27 25 26 35 35 33 33 28 27 35 28 25 26 28 31 34 35 33
11 8 6 4 13 20 21 19 21 22 20 21 23 27 24 21 21 24 26 25 23 23 24 26 27 27 27 24 25 27 22 22 39 23 25 20 21 24 25 25 26 28 30 30
11 12 13 11 2 17 23 18 18 17 17 19 22 28 33 27 22 22 23 26 27 25 24 24 23 24 25 25 27 30 23 20 19 21 25 30 31 32 35 36 35 33 33 34
23 14 7 8 11 7 14 24 26 25 23 20 19 24 25 29 28 26 25 22 24 25 26 25 25 25 25 26 26 26 28 28 27 27 26 25 25 26 29 32 36 39 39 39
24 24 23 18 13 12 10 5 14 22 26 28 30 24 25 28 28 31 28 27 23 21 21 22 23 25 26 26 26 27 28 31 29 27 25 22 22 23 25 25 27 27 27 28
27 24 23 23 21 13 7 5 3 7 16 28 30 34 37 31 33 36 36 33 34 32 23 19 17 18 22 25 27 25 22 24 22 20 20 20 22 22 24 22 19 16 17 20
26 26 23 20 19 19 17 13 10 7 6 10 20 29 32 37 44 41 44 37 32 26 31 28 22 19 16 18 21 23 23 23 23 22 22 21 22 21 21 21 20 19 19 20
22 25 25 24 20 17 16 17 16 14 10 4 7 12 18 27 34 36 39 48 32 32 34 32 32 28 23 21 20 21 23 24 28 30 29 27 26 26 26 26 24 23 20 20
16 18 20 22 20 20 18 15 15 15 15 11 4 3 8 14 20 24 26 28 31 43 46 45 48 35 37 32 25 24 26 25 26 29 31 30 30 31 33 32 31 29 26 24
12 13 17 20 20 16 15 15 14 15 17 17 15 10 7 8 8 12 17 23 25 27 30 35 48 58 52 52 44 34 34 31 30 33 33 32 32 32 33 36 34 30 27 27
10 10 12 15 17 16 15 15 14 13 12 13 14 15 13 11 11 11 11 14 21 17 22 28 32 39 50 52 57 50 44 42 40 38 39 33 33 30 33 35 37 35 30 25
10 10 12 11 12 13 15 15 15 15 13 10 11 12 14 13 13 13 14 15 21 17 10 13 22 26 27 32 45 54 49 37 47 38 31 32 36 30 32 32 34 33 31 34
9 10 12 12 12 13 14 15 15 15 15 13 13 13 12 13 14 12 12 10 11 20 25 17 14 15 18 17 23 27 37 28 31 37 38 36 33 33 29 35 33 27 33 40
9 8 10 10 10 11 13 14 14 12 13 11 12 15 14 13 14 12 13 11 5 7 7 2 10 12 10 15 21 29 30 38 39 42 38 34 38 37 41 40 34 36 35 33
5 9 9 7 9 10 10 12 13 11 11 9 12 15 16 17 18 18 15 13 8 2 2 10 19 21 25 27 28 27 29 28 29 27 27 29 28 26 28 27 21 25 25 24

GFSNGP_700_spd_048.txt.gz
Wind_Speed
22 21 21 23 25 26 27 28 34 33 36 34 30 29 18 12 12 22 30 32 38 30 30 25 29 31 32 31 33 32 33 31 31 32 31 32 34 35 34 33 31 30 30 28
23 22 24 30 32 36 36 36 36 34 39 27 30 28 33 27 22 20 19 26 34 38 35 32 25 31 34 33 33 33 33 34 32 30 33 34 34 35 36 35 32 31 31 30
25 23 26 33 33 38 43 41 40 41 39 22 30 30 27 29 27 27 27 24 28 37 36 35 28 31 37 35 36 34 34 35 36 34 32 33 34 35 37 36 34 33 32 31
25 22 19 37 33 36 42 46 44 40 37 36 20 22 26 26 27 35 32 28 29 35 37 34 28 30 36 38 40 36 35 34 35 37 37 36 35 36 36 36 36 34 33 31
21 21 26 34 29 25 42 46 42 41 40 45 34 24 26 28 24 23 26 28 30 34 36 38 37 33 30 37 41 40 38 35 31 31 33 36 37 38 36 36 37 34 32 30
18 14 15 23 22 9 24 40 34 34 32 43 38 38 28 29 30 26 26 26 30 34 36 42 40 37 35 37 39 41 38 36 28 29 31 30 37 36 34 33 33 32 31 31
30 25 26 38 45 31 14 27 35 46 47 51 34 41 41 34 33 25 25 22 28 33 37 42 43 40 36 31 34 36 37 37 30 32 30 28 27 32 35 34 34 33 33 31
23 20 21 35 27 8 7 19 32 36 38 48 43 43 43 41 34 29 25 23 28 33 38 42 48 46 42 36 35 40 38 35 30 32 28 31 33 34 35 35 34 33 32 31
19 14 26 11 6 9 19 27 36 36 33 34 41 38 39 40 38 31 26 25 26 33 44 50 50 51 47 40 39 38 40 35 33 31 29 27 30 33 35 34 34 33 33 32
8 12 11 7 9 3 19 32 39 39 40 41 37 33 31 26 20 27 23 22 24 27 37 51 56 54 54 50 42 45 44 40 38 35 32 32 32 32 33 34 34 34 34 34
11 18 4 7 9 5 18 32 35 37 36 37 37 37 29 25 20 16 17 21 24 25 27 33 46 56 55 48 45 52 48 46 41 39 36 37 38 39 39 38 38 36 35 33
17 13 13 13 8 6 15 28 30 31 31 31 32 33 31 30 26 23 20 22 26 26 31 33 38 42 43 47 51 51 50 47 45 41 39 39 40 40 40 37 33 31 30 29
16 10 11 14 13 8 16 23 22 24 25 26 26 26 25 28 26 26 24 25 27 30 29 32 32 37 41 42 42 46 43 45 42 44 45 43 42 44 45 43 39 36 34 34
14 8 10 11 8 8 13 13 15 17 21 18 18 20 18 18 18 20 21 24 25 26 28 29 31 32 31 34 40 47 48 39 43 40 42 42 44 47 47 43 31 35 34 33
20 14 14 10 12 11 14 10 12 15 16 16 17 15 15 16 16 14 15 19 21 22 23 25 28 30 33 33 35 34 29 29 28 25 40 42 32 21 41 28 23 25 30 33
22 21 14 9 9 7 8 19 16 16 18 15 18 19 17 16 15 15 13 13 18 19 22 20 19 21 24 27 29 33 33 29 28 26 22 20 24 39 32 36 31 30 32 34
22 23 21 23 16 14 8 4 9 23 23 21 19 18 24 21 20 18 18 15 13 13 15 18 20 21 19 21 22 21 24 25 28 32 31 24 33 38 36 24 24 27 32 33
26 26 24 22 21 20 15 10 5 12 18 20 24 22 24 25 27 27 23 24 21 17 13 12 14 18 20 20 20 20 23 26 27 26 25 22 25 24 22 26 27 27 29 30
20 23 23 22 22 18 16 16 15 10 6 5 13 22 29 27 29 30 32 31 26 26 24 22 17 16 18 18 17 18 17 22 24 23 22 23 26 25 24 26 27 29 29 28
16 18 20 21 20 20 19 17 16 14 12 9 5 5 15 21 21 25 32 36 32 34 31 30 33 34 24 22 23 20 20 19 22 24 25 24 25 26 28 28 27 27 27 28
14 16 18 19 18 18 18 18 16 17 15 12 8 4 5 7 11 14 22 29 34 43 43 40 34 38 33 31 26 24 24 28 24 28 29 28 25 24 25 25 26 27 27 28
9 12 14 17 16 15 15 15 16 14 13 14 15 13 8 4 6 7 11 18 26 30 33 39 45 46 40 37 38 36 32 27 26 27 30 34 30 30 33 33 33 34 35 34
8 8 9 10 11 12 12 13 14 14 14 13 12 13 14 13 10 6 6 6 12 18 26 33 37 45 52 51 52 50 44 40 37 31 29 28 27 30 28 33 35 35 36 37
7 7 8 8 9 10 12 13 13 14 15 15 14 13 14 14 15 14 11 7 5 2 11 20 22 25 28 34 43 45 53 54 50 53 47 41 36 32 31 36 35 37 37 38
5 7 8 7 8 9 11 13 12 12 12 13 16 17 15 14 14 15 15 13 14 9 6 1 12 16 16 19 24 30 37 48 56 54 55 57 50 46 42 40 38 38 42 46
3 3 6 6 6 7 9 10 10 10 9 8 9 10 12 16 15 15 12 10 10 14 16 14 7 4 11 13 17 20 21 24 29 33 36 46 51 44 47 55 52 49 45 45
7 2 5 2 3 7 7 9 8 7 7 8 8 9 6 10 16 17 16 10 8 11 11 15 13 8 2 6 13 15 22 22 27 28 32 38 40 45 46 45 40 42 30 29